Location: Innsbruck
(47.2657°N, 11.3914°E)
Time: 01:20:47
(UTC+01:00)

XW-2F - Pass Details

Date: 13 December 2021
Orbit: 495 x 515 km, 97.5° (Epoch: 16 January)

Event Time Altitude Azimuth Distance (km) Brightness Sun altitude
Rises 17:39:18 0° 171° (S) 2,613 ? -12.1°
Reaches altitude 10° 17:41:23 10° 173° (S) 1,734 ? -12.4°
Maximum altitude 17:45:06 71° 258° (WSW) 551 ? -13.0°
Drops below altitude 10° 17:48:53 10° 343° (NNW) 1,757 ? -13.6°
Sets 17:51:01 0° 346° (NNW) 2,650 ? -13.9°
